Regional Weather Roundup
Issued by NWS

Home | Current Version | Previous Version | Text Only | Print | Product List | Glossary On
Versions: 1 2 3 4 5 6 7 8 9 10 11 12 13 14 15 16 17 18 19 20 21 22 23 24 25 26 27 28 29 30 31 32 33 34 35 36 37 38 39 40 41 42 43 44 45 46 47 48 49 50
000
ASUS44 KFWD 210515
RWRTX
NORTH TEXAS HOURLY WEATHER ROUNDUP
NATIONAL WEATHER SERVICE FORT WORTH TX
1100 PM CST SAT JAN 20 2018

NOTE: "FAIR" INDICATES FEW OR NO CLOUDS BELOW 12,000 FEET WITH NO
SIGNIFICANT WEATHER AND/OR OBSTRUCTIONS TO VISIBILITY.

TXZ118-119-210600-
DALLAS/FORT WORTH METROPLEX

CITY           SKY/WX    TMP DP  RH WIND       PRES   REMARKS
DFW AIRPORT    CLOUDY    63  56  78 S21G33    29.91R
DALLAS LOVE    MOCLDY    63  57  81 S21G30    29.93R
FTW MEACHAM    CLOUDY    61  56  83 S18G28    29.91R
DAL-EXECUTIVE  CLOUDY    63  58  83 S15G23    29.93R
FTW-ALLIANCE   FAIR      59  55  87 S15G23    29.91R
FTW-NAS-JRB    MOCLDY    60  54  80 S20G33    29.92R
FTW-SPINKS     CLOUDY    61  56  81 S22G30    29.94S
ARLINGTON      CLOUDY    61  57  87 S17G28    29.93S
GRAND PRAIRIE  CLOUDY    61  55  78 S12G20    29.95R
ADDISON        CLOUDY    61  56  83 S17G26    29.94S
MESQUITE       CLOUDY    61  56  82 S14       29.95R
LANCASTER      CLOUDY    61  56  83 S13G18    29.96R
$$

TXZ091>094-102>105-117-120-121-131>134-210600-
NORTH CENTRAL TEXAS

CITY           SKY/WX    TMP DP  RH WIND       PRES   REMARKS
SHRMAN/DENISON FAIR      57  54  89 S15G21    29.91R
GAINESVILLE    FAIR      56  53  89 S14       29.91R
BOWIE          FAIR      56  53  89 S13G20    29.87R
BRIDGEPORT     FAIR      57  53  86 S10       29.90R
DECATUR        FAIR      56  53  89 S17G24    29.88R
DENTON         MOCLDY    59  55  87 S16       29.91R
MCKINNEY       MOCLDY    61  57  87 S21G30    29.91S
BONHAM         FAIR      58  54  86 S18       29.93R
GREENVILLE     CLOUDY    63  59  88 S12       29.96R
ROCKWALL       CLOUDY    61  57  86 S12       29.94S
TERRELL        CLOUDY    60  56  86 S10       29.96R
WAXAHACHIE     CLOUDY    61  58  89 S16G24    29.95S
CLEBURNE       CLOUDY    61  59  94 S16G25    29.95R
GRANBURY       FAIR      59  54  84 SE17G25   29.92S
$$

TXZ083>090-098>101-113>116-127>130-139>142-154-155-210600-
WESTERN NORTH TEXAS

CITY           SKY/WX    TMP DP  RH WIND       PRES   REMARKS
WICHITA FALLS  FAIR      56  44  64 S13       29.80S
WF-KICKAPOO    FAIR      54  46  73 S12       29.84R
VERNON         FAIR      51  27  39 S9        29.79R
ABILENE        FAIR      57  39  51 S16       29.86R
ABILENE-DYESS  FAIR      59  37  44 S20       29.85S
GRAHAM           N/A     59  50  70 SE7       29.85R
BRECKENRIDGE   FAIR      61  47  59 S12G21    29.86S
CISCO          FAIR      57  48  72 S15       29.88S
EASTLAND       FAIR      55  49  80 SE8       29.89S
RANGER         FAIR      54  50  87 S17G24    29.89S
MINERAL WELLS  FAIR      56  52  86 SE17      29.88R
STEPHENVILLE   FAIR      55  51  87 S12       29.95R
COMANCHE       FAIR      55  52  89 S20G29    29.92S
COLEMAN          N/A     55  45  70 S14       29.91
$$

TXZ143>147-156>162-174-175-210600-
CENTRAL TEXAS

CITY           SKY/WX    TMP DP  RH WIND       PRES   REMARKS
WACO           MOCLDY    59  56  89 S10       29.96S
WACO-TSTC      CLOUDY    59  57  94 S10       29.97R
WACO-MCGREGOR  MOCLDY    60  58  92 S12       29.97R
CORSICANA      FAIR      55  55 100 S8        29.97S FOG
MEXIA          FAIR      56  55  97 SE7       29.97S FOG
HEARNE         CLOUDY    59  59 100 SE8       30.01R
CAMERON        CLOUDY    61  59  94 S10       29.99S
TEMPLE         CLOUDY    59  57  93 S12       29.99R
KILLEEN        FAIR      58  56  95 S10       29.96S
KILLEEN-SKYLRK CLOUDY    60  57  89 S8        29.98R
FORT HOOD      FAIR      58  56  95 S14       29.93S
GATESVILLE     FAIR      61  57  88 S12       29.98S
HAMILTON       MOCLDY    55  55 100 S13       29.96R
LAMPASAS       FAIR      57  54  89 S9        29.96S
$$

TXZ095>097-106>112-122>126-135>138-148>153-164>167-210600-
EAST TEXAS

CITY           SKY/WX    TMP DP  RH WIND       PRES   REMARKS
PARIS          CLOUDY    60  58  92 S13       29.96S
SULPHUR SPRNGS CLOUDY    62  60  93 S9        29.98S
MOUNT PLEASANT MOCLDY    62  59  90 SE9       30.00S
GILMER         CLOUDY    63  60  91 SE6       29.99F
MINEOLA        CLOUDY    64  61  88 S9        29.97S
TYLER          CLOUDY    65  62  90 S15       29.97F
LONGVIEW       CLOUDY    64  63  96 S10       29.99F
MARSHALL       CLOUDY    63  59  88 S9        30.04S
ATHENS         CLOUDY    61  59  94 S10G21    29.97R
PALESTINE      CLOUDY    65  62  92 SE8       30.00S
JACKSONVILLE   CLOUDY    64  62  95 S10G18    30.02S
CENTER         CLOUDY    63  60  90 S14G20    30.06S
NACOGDOCHES    CLOUDY    64  62  93 S10       30.04S
LUFKIN         CLOUDY    64  62  93 S12       30.03F
$$

SUPPLEMENTAL OBSERVATIONS (NWS FORT WORTH AREA)

CITY           SKY/WX    TMP DP  RH WIND       PRES   REMARKS
DENISON DAM      N/A     59  55  88 S12         N/A
CADDO GRASSLND   N/A     61  57  88 S14         N/A
PAT MAYSE LAKE   N/A     61  59  94 SE15        N/A
GREENVILLE       N/A     61  55  82 S9G17       N/A
CEDAR HILL       N/A     63  57  82 S10G26      N/A
LBJ GRASSLAND    N/A     55  50  82 S14         N/A
POSSUM KINGDOM   N/A     57  48  72 SE10        N/A
GRANBURY         N/A     57  54  88 S18G25      N/A
COMANCHE         N/A     55  52  88 S22         N/A
MCGREGOR         N/A     59  55  88 S14         N/A
TEMPLE           N/A     59  57  94 S6          N/A
LAKE LIMESTONE   N/A     61  57  88 S10         N/A
ATHENS           N/A     64  61  88 S15G23      N/A
$$

SUPPLEMENTAL OBSERVATIONS (NWS NORMAN AREA)

CITY           SKY/WX    TMP DP  RH WIND       PRES   REMARKS
MILLERS CREEK    N/A     54  32  43 S10         N/A
$$

SUPPLEMENTAL OBSERVATIONS (NWS SAN ANGELO AREA)

CITY           SKY/WX    TMP DP  RH WIND       PRES   REMARKS
HAMBY            N/A     57  37  47 S14         N/A
IVIE RESERVOIR   N/A     55  45  67 SE15        N/A
COLORADO BEND    N/A     55  54  94 S9G17       N/A
$$

SUPPLEMENTAL OBSERVATIONS (NWS SHREVEPORT AREA)

CITY           SKY/WX    TMP DP  RH WIND       PRES   REMARKS
CLARKSVILLE      N/A     63  57  82 S10         N/A
TEXARKANA        N/A     63  59  88 SE3         N/A
LINDEN           N/A     63  59  88 SE6         N/A
CADDO LAKE       N/A     64  61  88 S5G14       N/A
GILMER           N/A     64  61  88 S8          N/A
HENDERSON        N/A     64  61  88 S9          N/A
LUFKIN           N/A     64  61  88 MISG        N/A
N SABINE NF      N/A    N/A N/A N/A MISG        N/A
S SABINE NF      N/A     61  59  94 S5          N/A
$$

SUPPLEMENTAL OBSERVATIONS ARE A COLLECTION OF AUTOMATED INSTRUMENTS
THAT ARE MAINTAINED BY A VARIETY OF FEDERAL AND STATE AGENCIES.
CERTAIN ELEMENTS...SUCH AS HUMIDITY VALUES AND SUSTAINED WIND
SPEEDS...MAY BE APPROXIMATED.





USA.gov is the U.S. government's official web portal to all federal, state and local government web resources and services.